Somerville, NJ

9:20 PM EDT on March 22, 2017 (GMT -0400)
Somerset

Weather History for KSMQ - November, 2013

Change the Weather History Date:

Saturday, November 2, 2013

  Actual Average Record
Temperature  
Mean Temperature 52 °F -  
Max Temperature 68 °F 60 °F 84 °F (1950)
Min Temperature 44 °F 40 °F 22 °F (1976)
Degree Days  
Heating Degree Days 13    
Growing Degree Days 2 (Base 50)    
Moisture  
Dew Point 46 °F    
Average Humidity 92    
Maximum Humidity 100    
Minimum Humidity 58    
Precipitation  
Precipitation 0.00 in - - ()
Sea Level Pressure  
Sea Level Pressure 29.66 in    
Wind  
Wind Speed 2 mph (NW)    
Max Wind Speed 6 mph    
Max Gust Speed -    
Visibility 6 miles    
Events Fog    
Averages and records for this station are not official NWS values.
T = Trace of Precipitation, MM = Missing Value Source: NWS Daily Summary

Daily Weather History Graph

Daily Weather History Graph

Search for Another Location

Airport or City:

Trip Planner

Search our weather history database for the weather conditions in past years. The results will help you decide how hot, cold, wet, or windy it might be!

Date:

Astronomy

Nov. 02, 2013 Rise Set
Actual Time 7:30 AM EDT 5:53 PM EDT
Civil Twilight 7:01 AM EDT 6:22 PM EDT
Nautical Twilight 6:29 AM EDT 6:54 PM EDT
Astronomical Twilight 5:57 AM EDT 7:26 PM EDT
Moon 6:24 AM EDT (11/2) 5:23 PM EDT (11/2)
Length of Visible Light 11h 20m
Length of Day
10h 23m
Waning Crescent, 1% of the Moon is Illuminated
Nov 2
Waning Crescent
Nov 3
New
Nov 10
First Quarter
Nov 17
Full
Nov 25
Last Quarter

Hourly Weather History & Observations

Time (EDT) Temp. Windchill Dew Point Humidity Pressure Visibility Wind Dir Wind Speed Gust Speed Precip Events Conditions
12:05 AM 46.4 °F 45.2 °F 46.4 °F 100% 29.65 in 2.5 mi NW 3.5 mph - N/A   Partly Cloudy
12:12 AM 46.4 °F 43.5 °F 46.4 °F 100% 29.65 in 1.2 mi NW 5.8 mph - N/A   Scattered Clouds
12:18 AM 46.4 °F 45.2 °F 46.4 °F 100% 29.65 in 3.0 mi NW 3.5 mph - N/A   Scattered Clouds
12:53 AM 46.0 °F - 45.0 °F 96% 29.66 in 7.0 mi Calm Calm - N/A   Clear
1:19 AM 46.4 °F 45.2 °F 46.4 °F 100% 29.65 in 1.5 mi NW 3.5 mph - N/A   Scattered Clouds
1:31 AM 44.6 °F 41.4 °F 44.6 °F 100% 29.65 in 3.0 mi WNW 5.8 mph - N/A   Mostly Cloudy
1:53 AM 45.0 °F 41.8 °F 44.1 °F 97% 29.65 in 10.0 mi NW 5.8 mph - N/A   Scattered Clouds
2:53 AM 46.0 °F - 45.0 °F 96% 29.65 in 10.0 mi Calm Calm - N/A   Mostly Cloudy
3:53 AM 46.9 °F - 46.0 °F 97% 29.64 in 10.0 mi Calm Calm - N/A   Overcast
4:53 AM 46.9 °F - 45.0 °F 93% 29.64 in 8.0 mi Calm Calm - N/A   Mostly Cloudy
5:53 AM 46.9 °F - 46.0 °F 97% 29.65 in 10.0 mi Calm Calm - N/A   Overcast
6:53 AM 48.0 °F - 46.0 °F 93% 29.66 in 10.0 mi Calm Calm - N/A   Overcast
7:40 AM 46.4 °F - 44.6 °F 93% 29.67 in 1.2 mi Calm Calm - N/A   Partly Cloudy
7:43 AM 44.6 °F - 44.6 °F 100% 29.67 in 0.2 mi Calm Calm - N/A Fog Fog
7:53 AM 46.0 °F - 44.1 °F 93% 29.68 in 0.2 mi Calm Calm - N/A Fog Fog
8:03 AM 46.4 °F - 44.6 °F 93% 29.68 in 1.0 mi Calm Calm - N/A   Mostly Cloudy
8:06 AM 46.4 °F - 44.6 °F 93% 29.68 in 3.0 mi Calm Calm - N/A   Mostly Cloudy
8:53 AM 50.0 °F - 48.0 °F 93% 29.69 in 10.0 mi Variable 3.5 mph - N/A   Overcast
9:53 AM 55.0 °F - 50.0 °F 83% 29.68 in 10.0 mi NW 3.5 mph - N/A   Mostly Cloudy
10:53 AM 60.1 °F - 48.0 °F 64% 29.67 in 10.0 mi Calm Calm - N/A   Mostly Cloudy
11:53 AM 64.0 °F - 48.9 °F 58% 29.65 in 10.0 mi Calm Calm - N/A   Clear